www.pogodaiklimat.ru

Погода и климат >> Архив погоды >> Украина >> Одесса


АРХИВ ПОГОДЫ в Одессе

Время (UTC), дата Ветер
(напр.,м/с)
 
Видим.   Явления Облачность Т
(С)
Тd
(С)
f
(%)
Тe
(С)
Тes
(С)
Комфортность P
(гПа)
Po
(гПа)
Тmin
(С)
Tmax
(С)
R
(мм)
R24
(мм)
S
(см)
03 16.05 СВ 5 13 км 10/0
[Ci fib]
+16.0 +13.8 87 +15 +15 по сезону 1013.3 1008.3
06 16.05 СВ 4 35 км 10/0
[Cc]
+18.9 +13.1 69 +20 +24 тепло 1013.3 1008.4 +14.4
09 16.05 СВ 3 45 км 8/0
[Ac und Ci fib]
+21.1 +13.3 61 +23 +33 комфорт 1013.0 1008.1
12 16.05 ЮВ 3 17 км слаб. ливневой дождь 9/9 600 м
[Cb cap]
+20.9 +14.8 68 +24 +25 комфорт 1012.2 1007.3
15 16.05 Ю 2 50 км {ливн. осадки} 10/8 600 м
[Cb cap Ac und]
+22.6 +12.3 52 +25 +25 комфорт 1012.0 1007.1
18 16.05 штиль 0 30 км {ливн. осадки} 10/0
[Ac trans Ci sp]
+19.2 +13.4 69 +20 +20 тепло 1011.6 1006.7 +22.7 0.0
21 16.05 Ю 3 22 км 8/0
[Ac trans Ci fib]
+17.4 +14.3 82 +17 +17 тепло 1011.9 1006.9
00 17.05 штиль 0 12 км 3/0
[Ac trans]
+16.4 +13.3 82 +16 +16 тепло 1011.6 1006.6
03 17.05 штиль 0 7000 м дымка 8/0
[Ci fib]
+14.3 +13.2 93 +14 +14 по сезону 1011.9 1006.9
06 17.05 СВ 2 11 км 6/0
[Ci fib]
+20.3 +14.2 68 +23 +30 комфорт 1012.4 1007.5 +14.0
09 17.05 СВ 1 30 км 8/0
[Ci fib]
+22.1 +13.5 58 +25 +42 комфорт 1011.8 1006.9
12 17.05 ЮВ 2 30 км 8/3 600 м
[Cu hum Ci fib]
+24.2 +15.4 58 +27 +36 жарко 1011.0 1006.2
15 17.05 штиль 0 45 км 8/3 600 м
[Cu med, cong Ci fib]
+24.1 +15.9 60 +27 +30 жарко 1010.4 1005.6
18 17.05 штиль 0 29 км 10/6 1500 м
[Sc Ac und Ci fib]
+21.3 +15.2 68 +24 +24 комфорт 1010.1 1005.2 +25.0
21 17.05 штиль 0 35 км 6/0 <50 м
[Ac und Ci fib]
+20.5 +15.3 72 +23 +23 комфорт 1010.4 1005.5
00 18.05 СЗ 2 29 км 8/0
[Ci fib]
+20.6 +15.4 72 +24 +24 комфорт 1008.7 1003.8
03 18.05 СВ 5 15 км 10/0
[Cs]
+18.6 +16.4 87 +19 +19 тепло 1007.7 1002.8
06 18.05 В 5 19 км 9/0
[Ac trans Ci]
+19.9 +16.9 83 +22 +25 комфорт 1008.7 1003.8 +18.3
09 18.05 В 4 25 км 8/0
[Ci fib]
+22.3 +17.4 74 +27 +37 душно 1007.9 1003.0
12 18.05 ЮВ 3 50 км 9/3 600 м
[Cu med, cong Ci fib]
+24.5 +16.5 61 +28 +35 душно 1006.9 1002.1
15 18.05 Ю 3 24 км 8/3 600 м
[Cu med, cong Ci sp]
+22.6 +16.6 69 +27 +29 душно 1006.2 1001.4
18 18.05 Ю 1 29 км 10/3 600 м
[Sc Ac trans Cs]
+20.7 +15.7 73 +25 +25 комфорт 1007.5 1002.6 +24.9
21 18.05 СЗ 1 17 км 3/0
[Ac trans Ci fib]
+17.7 +15.5 87 +19 +19 тепло 1007.9 1003.0
00 19.05 С 3 21 км 8/0
[Ac trans]
+18.3 +15.6 84 +19 +19 тепло 1007.3 1002.4
03 19.05 СВ 5 30 км {ливн. осадки} 9/0
[Ci sp]
+18.4 +15.5 83 +19 +19 тепло 1007.5 1002.6
06 19.05 В 3 30 км {ливн. осадки} 3/0
[Ci fib]
+20.0 +15.4 75 +23 +29 комфорт 1009.4 1004.5 +17.7 0.0
09 19.05 В 3 30 км 8/0
[Ac trans Ci fib]
+21.4 +15.3 68 +25 +35 комфорт 1009.8 1004.9
12 19.05 В 3 35 км 10/0
[Ac trans Ci fib]
+22.3 +15.6 66 +26 +35 жарко 1010.0 1005.1
15 19.05 Ю 3 30 км 10/0
[Ac trans Ci fib]
+20.5 +16.3 77 +24 +26 комфорт 1009.8 1004.9
18 19.05 ЮЗ 2 17 км 8/3 600 м
[Sc diur, vesp Ac trans]
+18.7 +16.1 85 +20 +20 тепло 1011.3 1006.4 +23.9
21 19.05 штиль 0 4800 м дымка 10/0
[Ac trans Ci fib]
+17.9 +16.6 92 +18 +18 тепло 1011.9 1006.9
00 20.05 В 2 1900 м дымка 8/0
[Ci fib]
+17.7 +16.9 95 +18 +18 тепло 1012.0 1007.0
03 20.05 В 2 6000 м дымка 6/0
[Ci fib]
+18.1 +16.8 92 +19 +19 тепло 1012.2 1007.3
06 20.05 ЮВ 4 300 м туман ?/? +16.9 +16.3 96 +16 +16 по сезону 1013.6 1008.6 +16.4
09 20.05 ЮВ 5 16 км {туман} 10/6 240 м
[St Ac und Ci fib]
+17.2 +15.0 87 +17 +18 по сезону 1014.8 1009.8
12 20.05 ЮВ 3 10 км {туман} 6/3 210 м
[St Ci fib]
+18.6 +16.0 85 +20 +27 по сезону 1014.6 1009.6
15 20.05 Ю 3 13 км 10/6 210 м
[St Ac und Cs]
+18.0 +15.8 87 +18 +19 по сезону 1013.8 1008.8
18 20.05 ЮВ 5 12 км 8/3 240 м
[St Ci fib]
+17.1 +15.3 89 +16 +16 по сезону 1012.3 1007.3 +19.2
21 20.05 Ю 6 8000 м дымка 10/10 150 м
[St]
+17.3 +16.0 92 +16 +16 по сезону 1013.0 1008.0
00 21.05 ЮВ 5 14 км 10/0
[Ac trans Ci sp]
+17.4 +15.4 88 +17 +17 тепло 1011.6 1006.6
03 21.05 Ю 4 9000 м дымка 10/8 210 м
[St Ci]
+16.9 +15.3 90 +16 +16 по сезону 1011.1 1006.1
06 21.05 Ю 2 9000 м 10/8 270 м
[St Ci fib]
+18.1 +16.3 89 +19 +20 тепло 1012.0 1007.1 +16.5
09 21.05 Ю 6 12 км 4/1 1000 м
[Cu hum Ci fib]
+19.3 +16.0 81 +21 +26 комфорт 1012.7 1007.8
12 21.05 Ю 6 27 км 8/3 1000 м
[Cu hum Ci fib]
+19.8 +15.7 77 +22 +25 комфорт 1012.8 1007.9
15 21.05 Ю 4 15 км 6/3 1000 м
[Sc diur, vesp Ci fib]
+18.4 +15.5 83 +19 +21 тепло 1012.0 1007.1
18 21.05 Ю 3 10 км слаб. ливневой дождь 10/10 150 м
[Cb cap]
+17.2 +15.9 92 +17 +17 по сезону 1012.5 1007.5 +20.9 0.0
21 21.05 Ю 3 6000 м в посл. час ливневой дождь ?/? +17.2 +15.7 91 +17 +17 тепло 1012.2 1007.2
00 22.05 ЮЗ 3 10 км слаб. ливневой дождь 10/10 330 м
[Cb cap]
+16.8 +12.7 77 +17 +17 тепло 1011.3 1006.3
03 22.05 З 2 26 км слаб. ливневой дождь 10/8 210 м
[Cb cap Ac und]
+14.5 +13.2 92 +14 +14 по сезону 1011.1 1006.1
06 22.05 З 2 40 км {ливн. осадки} 8/3 600 м
[Sc diur, vesp Ac trans]
+17.2 +13.1 77 +18 +21 тепло 1010.9 1005.9 +13.2 5
09 22.05 Ю 5 29 км 8/3 600 м
[Cu hum Ci fib]
+19.6 +15.3 76 +21 +27 комфорт 1010.5 1005.6
12 22.05 Ю 4 40 км 8/3 600 м
[Cu hum Ci fib]
+20.8 +14.5 67 +24 +30 комфорт 1009.6 1004.7
15 22.05 З 1 45 км гроза без осадков {ливн. осадки} 10/6 600 м
[Cb calv Ac trans Ci fib]
+21.2 +14.1 64 +24 +25 комфорт 1008.7 1003.8
18 22.05 В 1 30 км {гроза, ливн. осадки} 6/3 600 м
[Sc diur, vesp Ci fib]
+17.5 +14.6 83 +19 +19 тепло 1009.7 1004.7 +23.6 0.0
21 22.05 З 2 40 км 6/3 600 м
[Sc diur, vesp Ci fib]
+17.1 +14.0 82 +17 +17 тепло 1009.7 1004.7
00 23.05 З 1 50 км 6/0
[Ci fib]
+16.5 +12.3 76 +17 +17 тепло 1008.9 1003.9

 

Местоположение метеостанции Одесса (Одесская область, Украина): широта 46.43 долгота 30.77 высота над уровнем моря 42 м.

В архиве по умолчанию представлена погода в Одессе за последнюю неделю. Архивные данные за месяц целиком и за предыдущие месяцы, начиная с января 2011 года, Вы можете получить, выбрав интересующий диапазон дат из раскрывающегося списка и нажав кнопку "Ввод!".


*Определитесь, кто Вы:
робот инопланетянин человек

Внимание! Время в таблицах - всемирное. Для получения местного времени необходимо прибавить поправку, которая равна 2 ч.

Смотрите также архив погоды в соседних городах и на ближайших метеорологических станциях:

Погода в Ильичевске (Одесская область, Украина) (6 км)
Погода в Белгород-Днестровском (Одесская область, Украина) (41 км)
Погода в Очакове (Николаевская область, Украина) (64 км)
Погода в Сербке (Одесская область, Украина) (66 км)
Погода в Раздельной (Одесская область, Украина) (70 км)
Погода в Заставе (Одесская область, Украина) (72 км)
Погода в Сарате (Одесская область, Украина) (96 км)
Погода в Штефан Водэ (Молдова) (99 км)
Погода в Тирасполе (Молдова) (103 км)
Погода в Николаеве (Николаевская область, Украина) (112 км)

Пояснения к столбцам:

Ветер - указаны скорость ветра в м/с - средняя за 10 мин, порывы в срок и между сроками (в фигурных скобках) и направление, откуда дует ветер: С - северный, СВ - северо-восточный, В - восточный, ЮВ - юго-восточный, Ю - южный, ЮЗ - юго-западный, З - западный, СЗ - северо-западный.
Видимость - горизонтальная дальность видимости в метрах или километрах. При видимости от 1 до 10 км при отсутствии осадков обычно наблюдается дымка, при ухудшении видимости до 1 км и менее - туман. В сухую погоду видимость может ухудшаться дымом, пылью или мглою.
Явления - указаны атмосферные явления, наблюдавшиеся в срок или в последний час перед сроком; фигурными скобками обозначены явления, наблюдавшиеся между сроками (за 1-3 часа до срока); квадратными скобками обозначены град или гололедные отложения с указанием их диаметра в мм.
Облачность - указаны через наклонную черту общая и нижняя облачность в баллах и высота нижней границы облаков в метрах; квадратными скобками обозначены формы облаков: Ci - перистые, Cs - перисто-слоистые, Cc - перисто-кучевые, Ac - высококучевые, As - высокослоистые, Sc - слоисто-кучевые, Ns - слоисто-дождевые, Cu - кучевые, Cb - кучево-дождевые. Подробнее классификацию облаков см. в Атласе облаков (PDF).
T - Температура воздуха - температура, измеренная на высоте 2 м над землей.
Td - Температура точки росы - температура, при понижении до которой содержащийся в воздухе водяной пар достигнет насыщения.
f - Относительная влажность воздуха - влажноcть воздуха, измеренная на высоте 2 м над землей.
Te - Эффективная температура - температура, которую ощущает одетый по сезону человек в тени. Характеристика душности погоды. При расчете учитывается влияние влажности воздуха и скорости ветра на теплоощущения человека.
Tes - Эффективная температура на солнце - температура, которую ощущает человек, с поправкой на солнечный нагрев. Характеристика знойности погоды. Зависит от высоты солнца над горизонтом, облачности и скорости ветра. Ночью, в пасмурную погоду, а также при ветре 12 м/с и более поправка равна нулю.
P - Атмосферное давление - приведенное к уровню моря атмосферное давление.
Po - Атмосферное давление - измеренное на уровне метеостанции атмосферное давление.
Tmin - Минимальная температура - минимум температуры воздуха на высоте 2 м над землей.
Tmax - Максимальная температура - максимум температуры воздуха на высоте 2 м над землей.
R - Количество осадков - Количество выпавших осадков за период времени, мм. При наведении курсора мыши на число - период времени, за который выпало указанное количество осадков.
R24 - Количество осадков - Количество выпавших осадков за 24 часа, мм.
S - Снежный покров - Высота снежного покрова, см. При наведении курсора мыши на число - состояние снежного покрова и степень покрытия местности в баллах.